Torna al catalogo

STARLINK-31663

AttivoComunicazioniVLEO
NORAD 59576·PAYLOAD·🇺🇸 United States

Lanciato Apr 23, 2024 da Cape Canaveral Space Force Station

Loading…

Prossimi Passaggi (prossime 24 ore)

TLE

AggiornatoSource: CelesTrak SupGP

Epoca: Sep 14, 2026, 20:43 UTC

1 59576C 24076N   26257.86368056  .00046366  00000+0  16793-2 0  2574
2 59576  43.0042  20.9098 0001767 273.8066   0.7424 15.27556278    14

Traccia STARLINK-31663 in tempo reale con AllMySat

Download on the App Store